Time,TemperatureF,DewpointF,PressureIn,WindDirection,WindDirectionDegrees,WindSpeedMPH,WindSpeedGustMPH,Humidity,HourlyPrecipIn,Conditions,Clouds,dailyrainin,SoftwareType,DateUTC
2015-04-25 00:01:00,56.0,34.0,29.90,SE,134,0.0,1.0,43,-99.99,,,-99.99,,2015-04-25 04:01:00,
2015-04-25 00:11:00,56.0,36.0,29.90,SE,134,0.0,1.0,46,-99.99,,,-99.99,,2015-04-25 04:11:00,
2015-04-25 00:41:00,55.0,35.0,29.87,NE,46,0.0,3.0,47,-99.99,,,-99.99,,2015-04-25 04:41:00,
2015-04-25 01:02:00,55.0,35.0,29.86,ESE,121,0.0,4.0,46,-99.99,,,-99.99,,2015-04-25 05:02:00,
2015-04-25 01:11:00,55.0,35.0,29.88,SW,218,0.0,2.0,47,-99.99,,,-99.99,,2015-04-25 05:11:00,
2015-04-25 01:22:00,55.0,36.0,29.86,SW,218,0.0,1.0,49,-99.99,,,-99.99,,2015-04-25 05:22:00,
2015-04-25 01:31:00,55.0,36.0,29.86,SW,218,0.0,1.0,49,-99.99,,,-99.99,,2015-04-25 05:31:00,
2015-04-25 01:42:00,55.0,35.0,29.88,SW,218,0.0,1.0,47,-99.99,,,-99.99,,2015-04-25 05:42:00,
2015-04-25 01:52:00,55.0,36.0,29.86,South,186,0.0,1.0,48,-99.99,,,-99.99,,2015-04-25 05:52:00,
2015-04-25 02:11:00,55.0,35.0,29.87,South,186,0.0,0.0,47,-99.99,,,-99.99,,2015-04-25 06:11:00,
2015-04-25 03:11:00,52.0,44.0,29.86,SSW,198,0.0,0.0,74,-99.99,,,-99.99,,2015-04-25 07:11:00,
2015-04-25 03:41:00,51.0,43.0,29.85,SSW,194,0.0,0.0,74,-99.99,,,-99.99,,2015-04-25 07:41:00,
2015-04-25 04:31:00,51.0,43.0,29.86,South,190,0.0,2.0,74,-99.99,,,-99.99,,2015-04-25 08:31:00,
2015-04-25 04:42:00,51.0,43.0,29.85,East,101,0.0,3.0,75,-99.99,,,-99.99,,2015-04-25 08:42:00,
2015-04-25 04:51:00,51.0,43.0,29.84,East,101,0.0,1.0,74,-99.99,,,-99.99,,2015-04-25 08:51:00,
2015-04-25 05:31:00,50.0,43.0,29.84,East,101,0.0,1.0,78,-99.99,,,-99.99,,2015-04-25 09:31:00,
2015-04-25 05:42:00,49.0,43.0,29.83,East,101,0.0,0.0,80,-99.99,,,-99.99,,2015-04-25 09:42:00,
2015-04-25 05:52:00,48.0,42.0,29.83,East,101,0.0,0.0,79,-99.99,,,-99.99,,2015-04-25 09:52:00,
2015-04-25 06:01:00,48.0,42.0,29.83,East,101,0.0,0.0,79,-99.99,,,-99.99,,2015-04-25 10:01:00,
2015-04-25 06:11:00,48.0,41.0,29.81,ENE,71,0.0,3.0,78,-99.99,,,-99.99,,2015-04-25 10:11:00,
2015-04-25 06:31:00,49.0,42.0,29.80,ENE,71,0.0,1.0,76,-99.99,,,-99.99,,2015-04-25 10:31:00,
2015-04-25 06:42:00,49.0,42.0,29.80,ENE,71,0.0,1.0,76,-99.99,,,-99.99,,2015-04-25 10:42:00,
2015-04-25 07:02:00,49.0,41.0,29.79,ESE,105,0.0,2.0,74,-99.99,,,-99.99,,2015-04-25 11:02:00,
2015-04-25 07:12:00,49.0,41.0,29.79,ESE,105,0.0,3.0,74,-99.99,,,-99.99,,2015-04-25 11:12:00,
2015-04-25 07:32:00,49.0,41.0,29.80,ESE,105,0.0,2.0,73,-99.99,,,-99.99,,2015-04-25 11:32:00,
2015-04-25 07:42:00,49.0,40.0,29.80,ENE,76,0.0,3.0,70,-99.99,,,-99.99,,2015-04-25 11:42:00,
2015-04-25 07:52:00,49.0,40.0,29.80,ENE,76,0.0,1.0,71,-99.99,,,-99.99,,2015-04-25 11:52:00,
2015-04-25 08:11:00,49.0,40.0,29.81,ENE,69,0.0,1.0,72,-99.99,,,-99.99,,2015-04-25 12:11:00,
2015-04-25 08:21:00,49.0,40.0,29.81,ENE,69,0.0,1.0,72,-99.99,,,-99.99,,2015-04-25 12:21:00,
2015-04-25 08:32:00,49.0,41.0,29.80,ENE,69,0.0,1.0,74,-99.99,,,-99.99,,2015-04-25 12:32:00,
2015-04-25 08:42:00,48.0,40.0,29.78,ENE,66,2.0,7.0,75,-99.99,,,-99.99,,2015-04-25 12:42:00,
2015-04-25 08:52:00,48.0,41.0,29.77,NE,34,0.0,6.0,76,-99.99,,,-99.99,,2015-04-25 12:52:00,
2015-04-25 09:12:00,48.0,41.0,29.76,ENE,77,0.0,7.0,76,-99.99,,,-99.99,,2015-04-25 13:12:00,
2015-04-25 09:31:00,48.0,41.0,29.76,NE,51,0.0,6.0,76,-99.99,,,-99.99,,2015-04-25 13:31:00,
2015-04-25 09:42:00,48.0,41.0,29.75,ENE,69,0.0,2.0,77,-99.99,,,-99.99,,2015-04-25 13:42:00,
2015-04-25 10:01:00,49.0,41.0,29.74,East,94,0.0,9.0,75,-99.99,,,-99.99,,2015-04-25 14:01:00,
2015-04-25 10:11:00,49.0,40.0,29.75,East,94,3.0,10.0,72,-99.99,,,-99.99,,2015-04-25 14:11:00,
2015-04-25 10:21:00,49.0,40.0,29.75,ESE,119,1.0,7.0,72,-99.99,,,-99.99,,2015-04-25 14:21:00,
2015-04-25 10:31:00,49.0,40.0,29.75,ESE,119,1.0,7.0,72,-99.99,,,-99.99,,2015-04-25 14:31:00,
2015-04-25 10:42:00,50.0,41.0,29.74,East,79,1.0,4.0,71,-99.99,,,-99.99,,2015-04-25 14:42:00,
2015-04-25 10:51:00,49.0,41.0,29.72,ENE,57,2.0,5.0,73,-99.99,,,-99.99,,2015-04-25 14:51:00,
2015-04-25 11:11:00,49.0,42.0,29.72,North,5,1.0,3.0,78,-99.99,,,-99.99,,2015-04-25 15:11:00,
2015-04-25 11:21:00,49.0,43.0,29.71,NNW,336,1.0,5.0,81,-99.99,,,-99.99,,2015-04-25 15:21:00,
2015-04-25 11:42:00,49.0,44.0,29.72,NE,36,0.0,3.0,83,-99.99,,,-99.99,,2015-04-25 15:42:00,
2015-04-25 11:51:00,49.0,44.0,29.72,East,98,0.0,3.0,84,-99.99,,,-99.99,,2015-04-25 15:51:00,
2015-04-25 12:11:00,49.0,45.0,29.72,ESE,123,0.0,2.0,85,-99.99,,,-99.99,,2015-04-25 16:11:00,
2015-04-25 12:21:00,49.0,45.0,29.70,ESE,107,1.0,5.0,87,-99.99,,,-99.99,,2015-04-25 16:21:00,
2015-04-25 12:41:00,49.0,45.0,29.70,ENE,70,1.0,5.0,87,-99.99,,,-99.99,,2015-04-25 16:41:00,
2015-04-25 12:52:00,49.0,46.0,29.70,SE,144,0.0,6.0,88,-99.99,,,-99.99,,2015-04-25 16:52:00,
2015-04-25 13:12:00,49.0,46.0,29.68,ENE,77,0.0,3.0,89,-99.99,,,-99.99,,2015-04-25 17:12:00,
2015-04-25 13:42:00,49.0,46.0,29.66,North,351,1.0,5.0,90,-99.99,,,-99.99,,2015-04-25 17:42:00,
2015-04-25 13:52:00,48.0,45.0,29.66,ENE,78,0.0,5.0,91,-99.99,,,-99.99,,2015-04-25 17:52:00,
2015-04-25 14:12:00,48.0,45.0,29.65,NE,36,2.0,6.0,90,-99.99,,,-99.99,,2015-04-25 18:12:00,
2015-04-25 14:22:00,47.0,44.0,29.63,North,351,5.0,11.0,90,-99.99,,,-99.99,,2015-04-25 18:22:00,
2015-04-25 14:42:00,47.0,45.0,29.63,NNW,345,4.0,10.0,91,-99.99,,,-99.99,,2015-04-25 18:42:00,
2015-04-25 14:52:00,47.0,45.0,29.63,NNW,341,1.0,11.0,91,-99.99,,,-99.99,,2015-04-25 18:52:00,
2015-04-25 15:11:00,46.0,44.0,29.63,NNE,17,4.0,9.0,91,-99.99,,,-99.99,,2015-04-25 19:11:00,
2015-04-25 15:22:00,45.0,43.0,29.63,North,9,4.0,10.0,91,-99.99,,,-99.99,,2015-04-25 19:22:00,
2015-04-25 15:42:00,46.0,44.0,29.63,NNE,26,2.0,11.0,92,-99.99,,,-99.99,,2015-04-25 19:42:00,
2015-04-25 15:51:00,45.0,43.0,29.62,NE,55,4.0,10.0,92,-99.99,,,-99.99,,2015-04-25 19:51:00,
2015-04-25 16:11:00,45.0,43.0,29.64,NNE,32,3.0,11.0,91,-99.99,,,-99.99,,2015-04-25 20:11:00,
2015-04-25 16:21:00,44.0,42.0,29.67,NNW,343,5.0,12.0,91,-99.99,,,-99.99,,2015-04-25 20:21:00,
2015-04-25 16:42:00,44.0,42.0,29.66,North,11,4.0,11.0,92,-99.99,,,-99.99,,2015-04-25 20:42:00,
2015-04-25 16:51:00,43.0,41.0,29.65,North,350,7.0,13.0,91,-99.99,,,-99.99,,2015-04-25 20:51:00,
2015-04-25 17:11:00,44.0,42.0,29.64,NE,42,2.0,11.0,92,-99.99,,,-99.99,,2015-04-25 21:11:00,
2015-04-25 17:21:00,44.0,42.0,29.63,North,360,3.0,10.0,92,-99.99,,,-99.99,,2015-04-25 21:21:00,
2015-04-25 17:42:00,44.0,42.0,29.63,NE,42,2.0,7.0,92,-99.99,,,-99.99,,2015-04-25 21:42:00,
2015-04-25 17:51:00,44.0,42.0,29.65,NNE,23,5.0,8.0,91,-99.99,,,-99.99,,2015-04-25 21:51:00,
2015-04-25 18:11:00,44.0,42.0,29.64,NNW,339,5.0,10.0,91,-99.99,,,-99.99,,2015-04-25 22:11:00,
2015-04-25 18:21:00,44.0,42.0,29.63,NNE,32,2.0,11.0,92,-99.99,,,-99.99,,2015-04-25 22:21:00,
2015-04-25 18:41:00,45.0,43.0,29.62,North,360,1.0,6.0,92,-99.99,,,-99.99,,2015-04-25 22:41:00,
2015-04-25 18:51:00,45.0,43.0,29.61,NE,36,4.0,8.0,92,-99.99,,,-99.99,,2015-04-25 22:51:00,
2015-04-25 19:11:00,45.0,43.0,29.63,NNE,22,2.0,7.0,92,-99.99,,,-99.99,,2015-04-25 23:11:00,
2015-04-25 19:21:00,45.0,43.0,29.62,NNW,335,4.0,8.0,91,-99.99,,,-99.99,,2015-04-25 23:21:00,